Weather History for Ann Arbor, MI

Change the Weather History Date:

Wednesday, October 30, 2013

  Actual Average Record
Temperature  
Mean Temperature 46 °F -  
Max Temperature 64 °F 55 °F 75 °F (1999)
Min Temperature 28 °F 34 °F 19 °F (2008)
Degree Days  
Heating Degree Days 19    
Moisture  
Dew Point 38 °F    
Average Humidity 81    
Maximum Humidity 100    
Minimum Humidity 44    
Precipitation  
Precipitation 0.18 in - - ()
Sea Level Pressure  
Sea Level Pressure 30.13 in    
Wind  
Wind Speed 2 mph (SE)    
Max Wind Speed 8 mph    
Max Gust Speed -    
Visibility 6 miles    
Events Rain    
Averages and records for this station are not official NWS values.
T = Trace of Precipitation, MM = Missing Value Source: NWS Daily Summary

Daily Weather History Graph

Daily Weather History Graph

Search for Another Location

Airport:

Trip Planner

Search our weather history database for the weather conditions in past years. The results will help you decide how hot, cold, wet, or windy it might be!

Date:

Astronomy

Oct. 30, 2013 Rise Set
Actual Time 8:05 AM EDT 6:30 PM EDT
Civil Twilight 7:36 AM EDT 6:59 PM EDT
Nautical Twilight 7:03 AM EDT 7:32 PM EDT
Astronomical Twilight 6:31 AM EDT 8:05 PM EDT
Moon 3:49 AM EDT (10/30) 4:19 PM EDT (10/30)
Length of Visible Light 11h 22m
Length of Day
10h 24m
Waning Crescent, 17% of the Moon is Illuminated
Oct 30
Waning Crescent
Nov 3
New
Nov 10
First Quarter
Nov 17
Full
Nov 25
Last Quarter

Hourly Weather History & Observations

Time (EDT) Temp. Windchill Dew Point Humidity Pressure Visibility Wind Dir Wind Speed Gust Speed Precip Events Conditions
12:53 AM 37.0 °F 33.3 °F 33.1 °F 86% 30.24 in 10.0 mi NE 4.6 mph - N/A   Clear
1:53 AM 35.1 °F 32.2 °F 33.1 °F 92% 30.22 in 10.0 mi NNE 3.5 mph - N/A   Clear
2:53 AM 30.0 °F - 28.0 °F 92% 30.22 in 10.0 mi Calm Calm - N/A   Clear
3:53 AM 28.9 °F - 27.0 °F 92% 30.20 in 10.0 mi Calm Calm - N/A   Clear
4:53 AM 30.9 °F - 28.9 °F 92% 30.18 in 8.0 mi Calm Calm - N/A   Clear
5:53 AM 30.9 °F - 28.9 °F 92% 30.18 in 8.0 mi Calm Calm - N/A   Clear
6:10 AM 30.2 °F - 28.4 °F 93% 30.17 in 1.8 mi Calm Calm - N/A   Clear
6:18 AM 32.0 °F - 30.2 °F 93% 30.17 in 1.0 mi Calm Calm - N/A   Clear
6:22 AM 32.0 °F - 30.2 °F 93% 30.17 in 2.0 mi Calm Calm - N/A   Clear
6:29 AM 32.0 °F - 30.2 °F 93% 30.18 in 8.0 mi Calm Calm - N/A   Clear
6:53 AM 30.9 °F - 28.9 °F 92% 30.20 in 6.0 mi Calm Calm - N/A   Clear
7:53 AM 34.0 °F - 32.0 °F 92% 30.19 in 6.0 mi Calm Calm - N/A   Partly Cloudy
8:29 AM 30.2 °F - 30.2 °F 100% 30.18 in 1.2 mi Calm Calm - N/A   Clear
8:38 AM 30.2 °F - 28.4 °F 93% 30.18 in 0.8 mi Calm Calm - N/A   Clear
8:53 AM 32.0 °F - 30.9 °F 96% 30.20 in 0.8 mi Calm Calm - N/A   Clear
9:01 AM 32.0 °F - 30.2 °F 93% 30.19 in 1.5 mi Calm Calm - N/A   Clear
9:04 AM 32.0 °F - 30.2 °F 93% 30.19 in 3.0 mi Calm Calm - N/A   Clear
9:14 AM 35.6 °F - 33.8 °F 93% 30.19 in 1.8 mi Calm Calm - N/A   Clear
9:24 AM 37.4 °F - 37.4 °F 100% 30.19 in 3.0 mi Calm Calm - N/A   Clear
9:53 AM 44.1 °F - 41.0 °F 89% 30.21 in 6.0 mi Calm Calm - N/A   Clear
10:53 AM 50.0 °F - 42.1 °F 74% 30.20 in 8.0 mi Variable 3.5 mph - N/A   Clear
11:53 AM 55.9 °F - 43.0 °F 62% 30.19 in 9.0 mi SW 4.6 mph - N/A   Clear
12:53 PM 59.0 °F - 42.1 °F 53% 30.17 in 10.0 mi Variable 4.6 mph - N/A   Clear
1:53 PM 62.1 °F - 42.1 °F 48% 30.12 in 10.0 mi SSE 6.9 mph - N/A   Clear
2:53 PM 64.0 °F - 42.1 °F 45% 30.10 in 10.0 mi SE 8.1 mph - N/A   Clear
3:53 PM 62.1 °F - 39.9 °F 44% 30.09 in 10.0 mi Variable 5.8 mph - N/A   Clear
4:53 PM 62.1 °F - 41.0 °F 46% 30.09 in 10.0 mi South 8.1 mph - N/A   Clear
5:53 PM 59.0 °F - 41.0 °F 51% 30.07 in 10.0 mi SSE 5.8 mph - N/A   Overcast
6:53 PM 57.9 °F - 44.1 °F 60% 30.06 in 10.0 mi ESE 5.8 mph - N/A   Overcast
7:45 PM 55.4 °F - 44.6 °F 67% 30.04 in 10.0 mi SE 5.8 mph - N/A   Mostly Cloudy
7:53 PM 55.0 °F - 45.0 °F 69% 30.06 in 10.0 mi SE 6.9 mph - N/A   Scattered Clouds
8:27 PM 55.4 °F - 44.6 °F 67% 30.06 in 10.0 mi SSE 3.5 mph - N/A   Mostly Cloudy
8:53 PM 54.0 °F - 45.0 °F 72% 30.06 in 10.0 mi SE 4.6 mph - N/A   Overcast
9:53 PM 54.0 °F - 46.0 °F 75% 30.03 in 10.0 mi SE 3.5 mph - N/A   Overcast
10:22 PM 51.8 °F - 48.2 °F 88% 30.01 in 3.0 mi Calm Calm - 0.08 in Rain Light Rain
10:53 PM 52.0 °F - 50.0 °F 93% 30.00 in 5.0 mi ESE 3.5 mph - 0.13 in Rain Light Rain
11:04 PM 51.8 °F - 50.0 °F 94% 29.96 in 3.0 mi East 5.8 mph - 0.02 in Rain Rain
11:15 PM 51.8 °F - 51.8 °F 100% 29.96 in 3.0 mi ESE 6.9 mph - 0.04 in Rain Light Rain
11:53 PM 53.1 °F - 52.0 °F 96% 29.97 in 3.0 mi Calm Calm - 0.05 in Rain Light Rain